Time,TemperatureF,DewpointF,PressureIn,WindDirection,WindDirectionDegrees,WindSpeedMPH,WindSpeedGustMPH,Humidity,HourlyPrecipIn,Conditions,Clouds,dailyrainin,SoftwareType,DateUTC
2013-05-11 00:00:00,61.3,55.4,29.92,SSE,167,0.0,0.0,81,0.00,,,0.00,meteohub,2013-05-11 04:00:00,
2013-05-11 00:01:00,61.3,55.4,29.92,SSE,167,0.0,0.0,81,0.00,,,0.00,meteohub,2013-05-11 04:01:00,
2013-05-11 00:02:00,61.3,55.4,29.92,SSE,167,0.0,0.0,81,0.00,,,0.00,meteohub,2013-05-11 04:02:00,
2013-05-11 00:07:00,61.2,55.2,29.92,SSE,167,0.0,0.0,81,0.00,,,0.00,meteohub,2013-05-11 04:07:00,
2013-05-11 00:12:00,61.2,55.6,29.92,SSE,167,0.0,0.0,82,0.00,,,0.00,meteohub,2013-05-11 04:12:00,
2013-05-11 00:17:00,61.0,55.4,29.91,SSE,167,0.0,0.0,82,0.00,,,0.00,meteohub,2013-05-11 04:17:00,
2013-05-11 00:22:00,61.0,55.4,29.91,SSE,167,0.0,0.0,82,0.00,,,0.00,meteohub,2013-05-11 04:22:00,
2013-05-11 00:27:00,60.8,55.2,29.91,SSE,167,0.0,0.0,82,0.00,,,0.00,meteohub,2013-05-11 04:27:00,
2013-05-11 00:32:00,60.6,55.4,29.91,SSE,167,0.0,0.0,83,0.00,,,0.00,meteohub,2013-05-11 04:32:00,
2013-05-11 00:37:00,60.6,55.4,29.91,SSE,167,0.0,0.0,83,0.00,,,0.00,meteohub,2013-05-11 04:37:00,
2013-05-11 00:42:00,60.4,55.2,29.91,SSE,167,0.0,0.0,83,0.00,,,0.00,meteohub,2013-05-11 04:42:00,
2013-05-11 00:47:00,60.4,55.2,29.91,SSE,167,0.0,0.0,83,0.00,,,0.00,meteohub,2013-05-11 04:47:00,
2013-05-11 00:52:00,60.4,55.6,29.91,SSE,167,0.0,0.0,84,0.00,,,0.00,meteohub,2013-05-11 04:52:00,
2013-05-11 00:57:00,60.4,55.6,29.91,SSE,167,0.0,0.0,84,0.00,,,0.00,meteohub,2013-05-11 04:57:00,
2013-05-11 01:02:00,60.4,55.6,29.90,SSE,167,0.0,0.0,84,0.00,,,0.00,meteohub,2013-05-11 05:02:00,
2013-05-11 01:07:00,60.3,55.4,29.90,SSE,167,0.0,0.0,84,0.00,,,0.00,meteohub,2013-05-11 05:07:00,
2013-05-11 01:12:00,60.3,55.4,29.90,SSE,167,0.0,0.0,84,0.00,,,0.00,meteohub,2013-05-11 05:12:00,
2013-05-11 01:17:00,60.3,55.4,29.90,SSE,167,0.0,0.0,84,0.00,,,0.00,meteohub,2013-05-11 05:17:00,
2013-05-11 01:22:00,60.3,55.4,29.90,SSW,198,0.0,1.0,84,0.00,,,0.00,meteohub,2013-05-11 05:22:00,
2013-05-11 01:27:00,60.3,55.4,29.90,SSW,198,0.0,2.0,84,0.00,,,0.00,meteohub,2013-05-11 05:27:00,
2013-05-11 01:32:00,60.3,55.4,29.90,SSW,198,0.0,2.0,84,0.00,,,0.00,meteohub,2013-05-11 05:32:00,
2013-05-11 01:37:00,60.3,55.4,29.90,SSW,198,0.0,0.0,84,0.00,,,0.00,meteohub,2013-05-11 05:37:00,
2013-05-11 01:42:00,60.1,55.2,29.89,SSW,198,0.0,0.0,84,0.00,,,0.00,meteohub,2013-05-11 05:42:00,
2013-05-11 01:47:00,60.1,55.6,29.88,SSW,198,0.0,0.0,85,0.00,,,0.00,meteohub,2013-05-11 05:47:00,
2013-05-11 01:52:00,59.7,55.2,29.89,SSW,198,0.0,1.0,85,0.00,,,0.00,meteohub,2013-05-11 05:52:00,
2013-05-11 01:57:00,59.7,55.6,29.88,SSW,198,0.0,1.0,86,0.00,,,0.00,meteohub,2013-05-11 05:57:00,
2013-05-11 02:02:00,59.5,55.4,29.88,SSW,198,0.0,1.0,86,0.00,,,0.00,meteohub,2013-05-11 06:02:00,
2013-05-11 02:07:00,59.5,55.4,29.88,SSW,198,0.0,1.0,86,0.00,,,0.00,meteohub,2013-05-11 06:07:00,
2013-05-11 02:12:00,59.4,55.2,29.88,SSW,198,0.0,1.0,86,0.00,,,0.00,meteohub,2013-05-11 06:12:00,
2013-05-11 02:17:00,59.4,55.4,29.88,SSW,198,0.0,0.0,87,0.00,,,0.00,meteohub,2013-05-11 06:17:00,
2013-05-11 02:22:00,59.2,55.4,29.88,SSW,198,0.0,0.0,87,0.00,,,0.00,meteohub,2013-05-11 06:22:00,
2013-05-11 02:27:00,59.2,55.4,29.87,SSW,198,0.0,0.0,87,0.00,,,0.00,meteohub,2013-05-11 06:27:00,
2013-05-11 02:32:00,59.2,55.4,29.87,SSW,198,0.0,0.0,87,0.00,,,0.00,meteohub,2013-05-11 06:32:00,
2013-05-11 02:37:00,59.2,55.4,29.87,SSW,198,0.0,0.0,87,0.00,,,0.00,meteohub,2013-05-11 06:37:00,
2013-05-11 02:42:00,59.2,55.4,29.87,SSW,198,0.0,0.0,87,0.00,,,0.00,meteohub,2013-05-11 06:42:00,
2013-05-11 02:47:00,59.2,55.4,29.86,South,190,0.0,0.0,87,0.00,,,0.00,meteohub,2013-05-11 06:47:00,
2013-05-11 02:52:00,59.2,55.4,29.87,South,190,0.0,1.0,87,0.00,,,0.00,meteohub,2013-05-11 06:52:00,
2013-05-11 02:57:00,59.2,55.4,29.87,South,190,0.0,1.0,87,0.00,,,0.00,meteohub,2013-05-11 06:57:00,
2013-05-11 03:02:00,59.2,55.4,29.87,South,190,0.0,0.0,87,0.00,,,0.00,meteohub,2013-05-11 07:02:00,
2013-05-11 03:07:00,59.2,55.4,29.86,South,190,0.0,0.0,87,0.00,,,0.00,meteohub,2013-05-11 07:07:00,
2013-05-11 03:12:00,59.2,55.4,29.86,South,190,0.0,0.0,87,0.00,,,0.00,meteohub,2013-05-11 07:12:00,
2013-05-11 03:17:00,59.2,55.6,29.87,South,190,0.0,0.0,88,0.01,,,0.01,meteohub,2013-05-11 07:17:00,
2013-05-11 03:22:00,59.2,55.9,29.87,South,190,0.0,0.0,89,0.02,,,0.02,meteohub,2013-05-11 07:22:00,
2013-05-11 03:27:00,59.0,56.1,29.87,South,190,0.0,0.0,90,0.02,,,0.02,meteohub,2013-05-11 07:27:00,
2013-05-11 03:32:00,58.8,55.9,29.86,South,190,0.0,0.0,90,0.04,,,0.04,meteohub,2013-05-11 07:32:00,
2013-05-11 03:37:00,58.6,55.9,29.85,South,190,0.0,0.0,91,0.06,,,0.06,meteohub,2013-05-11 07:37:00,
2013-05-11 03:42:00,58.6,55.9,29.84,South,190,0.0,0.0,91,0.07,,,0.07,meteohub,2013-05-11 07:42:00,
2013-05-11 03:47:00,58.5,55.8,29.85,South,190,0.0,0.0,91,0.07,,,0.07,meteohub,2013-05-11 07:47:00,
2013-05-11 03:52:00,58.3,55.9,29.85,South,190,0.0,0.0,92,0.07,,,0.07,meteohub,2013-05-11 07:52:00,
2013-05-11 03:57:00,58.3,55.9,29.85,South,190,0.0,0.0,92,0.08,,,0.08,meteohub,2013-05-11 07:57:00,
2013-05-11 04:02:00,58.3,55.9,29.84,South,190,0.0,0.0,92,0.08,,,0.08,meteohub,2013-05-11 08:02:00,
2013-05-11 04:07:00,58.1,55.8,29.84,South,190,0.0,0.0,92,0.08,,,0.08,meteohub,2013-05-11 08:07:00,
2013-05-11 04:12:00,58.1,55.8,29.84,South,190,0.0,1.0,92,0.08,,,0.08,meteohub,2013-05-11 08:12:00,
2013-05-11 04:17:00,57.9,55.9,29.83,South,190,0.0,1.0,93,0.07,,,0.08,meteohub,2013-05-11 08:17:00,
2013-05-11 04:22:00,57.9,55.9,29.83,South,190,0.0,1.0,93,0.06,,,0.08,meteohub,2013-05-11 08:22:00,
2013-05-11 04:27:00,57.9,55.9,29.82,South,190,0.0,0.0,93,0.05,,,0.08,meteohub,2013-05-11 08:27:00,
2013-05-11 04:32:00,57.9,55.9,29.83,South,190,0.0,0.0,93,0.02,,,0.08,meteohub,2013-05-11 08:32:00,
2013-05-11 04:37:00,58.1,56.1,29.83,South,190,0.0,0.0,93,0.02,,,0.08,meteohub,2013-05-11 08:37:00,
2013-05-11 04:42:00,58.1,56.1,29.83,South,190,0.0,0.0,93,0.01,,,0.08,meteohub,2013-05-11 08:42:00,
2013-05-11 04:47:00,58.1,56.1,29.83,South,190,0.0,0.0,93,0.01,,,0.08,meteohub,2013-05-11 08:47:00,
2013-05-11 04:52:00,58.1,56.1,29.83,South,190,0.0,1.0,93,0.00,,,0.08,meteohub,2013-05-11 08:52:00,
2013-05-11 04:57:00,58.1,56.3,29.83,South,191,0.0,3.0,94,0.00,,,0.08,meteohub,2013-05-11 08:57:00,
2013-05-11 05:01:00,58.3,56.5,29.83,West,259,0.0,4.0,94,0.00,,,0.08,meteohub,2013-05-11 09:01:00,
2013-05-11 05:06:00,58.3,56.5,29.83,West,259,0.0,4.0,94,0.00,,,0.08,meteohub,2013-05-11 09:06:00,
2013-05-11 05:12:00,58.3,56.5,29.83,West,259,0.0,3.0,94,0.00,,,0.08,meteohub,2013-05-11 09:12:00,
2013-05-11 05:17:00,58.3,56.5,29.83,SSW,200,0.0,1.0,94,0.00,,,0.08,meteohub,2013-05-11 09:17:00,
2013-05-11 05:22:00,58.3,56.5,29.84,South,184,0.0,1.0,94,0.00,,,0.08,meteohub,2013-05-11 09:22:00,
2013-05-11 05:27:00,58.3,56.5,29.83,South,184,0.0,4.0,94,0.00,,,0.08,meteohub,2013-05-11 09:27:00,
2013-05-11 05:32:00,58.3,56.5,29.83,West,267,0.0,4.0,94,0.00,,,0.08,meteohub,2013-05-11 09:32:00,
2013-05-11 05:37:00,58.3,56.5,29.84,South,187,0.0,1.0,94,0.00,,,0.08,meteohub,2013-05-11 09:37:00,
2013-05-11 05:42:00,58.3,56.5,29.84,South,187,0.0,2.0,94,0.00,,,0.08,meteohub,2013-05-11 09:42:00,
2013-05-11 05:47:00,58.3,56.5,29.84,South,187,0.0,2.0,94,0.00,,,0.08,meteohub,2013-05-11 09:47:00,
2013-05-11 05:52:00,58.3,56.5,29.84,South,187,0.0,0.0,94,0.00,,,0.08,meteohub,2013-05-11 09:52:00,
2013-05-11 05:57:00,58.3,56.5,29.84,South,188,0.0,1.0,94,0.00,,,0.08,meteohub,2013-05-11 09:57:00,
2013-05-11 06:02:00,58.3,56.5,29.84,South,189,0.0,3.0,94,0.00,,,0.08,meteohub,2013-05-11 10:02:00,
2013-05-11 06:07:00,58.3,56.5,29.84,South,188,0.0,3.0,94,0.00,,,0.08,meteohub,2013-05-11 10:07:00,
2013-05-11 06:12:00,58.3,56.5,29.84,South,186,0.0,3.0,94,0.00,,,0.08,meteohub,2013-05-11 10:12:00,
2013-05-11 06:17:00,58.5,56.7,29.84,South,181,0.0,2.0,94,0.00,,,0.08,meteohub,2013-05-11 10:17:00,
2013-05-11 06:22:00,58.5,56.7,29.84,South,181,0.0,2.0,94,0.00,,,0.08,meteohub,2013-05-11 10:22:00,
2013-05-11 06:27:00,58.5,56.7,29.84,South,181,0.0,2.0,94,0.00,,,0.08,meteohub,2013-05-11 10:27:00,
2013-05-11 06:32:00,58.5,56.7,29.84,South,181,1.0,1.0,94,0.00,,,0.08,meteohub,2013-05-11 10:32:00,
2013-05-11 06:37:00,58.5,56.7,29.84,South,189,0.0,1.0,94,0.00,,,0.08,meteohub,2013-05-11 10:37:00,
2013-05-11 06:42:00,58.5,56.7,29.83,West,259,0.0,2.0,94,0.00,,,0.08,meteohub,2013-05-11 10:42:00,
2013-05-11 06:47:00,58.5,56.7,29.83,West,259,0.0,2.0,94,0.00,,,0.08,meteohub,2013-05-11 10:47:00,
2013-05-11 06:52:00,58.6,56.8,29.83,West,259,0.0,2.0,94,0.00,,,0.08,meteohub,2013-05-11 10:52:00,
2013-05-11 06:57:00,58.6,56.8,29.83,West,259,0.0,2.0,94,0.00,,,0.08,meteohub,2013-05-11 10:57:00,
2013-05-11 07:02:00,58.6,56.8,29.83,West,259,0.0,1.0,94,0.00,,,0.08,meteohub,2013-05-11 11:02:00,
2013-05-11 07:07:00,58.6,56.8,29.83,South,188,0.0,0.0,94,0.00,,,0.08,meteohub,2013-05-11 11:07:00,
2013-05-11 07:12:00,58.6,56.8,29.83,South,188,0.0,4.0,94,0.00,,,0.08,meteohub,2013-05-11 11:12:00,
2013-05-11 07:17:00,58.8,57.4,29.83,South,188,0.0,4.0,95,0.00,,,0.08,meteohub,2013-05-11 11:17:00,
2013-05-11 07:22:00,58.8,57.0,29.83,SSW,204,0.0,4.0,94,0.00,,,0.08,meteohub,2013-05-11 11:22:00,
2013-05-11 07:27:00,58.8,57.0,29.82,SSW,200,0.0,2.0,94,0.00,,,0.08,meteohub,2013-05-11 11:27:00,
2013-05-11 07:32:00,58.8,57.0,29.82,SSW,200,0.0,2.0,94,0.00,,,0.08,meteohub,2013-05-11 11:32:00,
2013-05-11 07:37:00,59.0,57.6,29.82,SSW,200,0.0,2.0,95,0.00,,,0.08,meteohub,2013-05-11 11:37:00,
2013-05-11 07:42:00,59.2,57.7,29.82,SSW,200,0.0,1.0,95,0.00,,,0.08,meteohub,2013-05-11 11:42:00,
2013-05-11 07:47:00,59.2,57.4,29.82,SSW,195,0.0,1.0,94,0.01,,,0.09,meteohub,2013-05-11 11:47:00,
2013-05-11 07:52:00,59.2,57.4,29.82,SSW,196,0.0,2.0,94,0.01,,,0.09,meteohub,2013-05-11 11:52:00,
2013-05-11 07:56:00,59.2,57.4,29.82,South,183,0.0,2.0,94,0.01,,,0.09,meteohub,2013-05-11 11:56:00,
2013-05-11 08:02:00,59.2,57.4,29.82,South,183,0.0,2.0,94,0.01,,,0.09,meteohub,2013-05-11 12:02:00,
2013-05-11 08:07:00,59.2,57.4,29.82,South,178,0.0,2.0,94,0.01,,,0.09,meteohub,2013-05-11 12:07:00,
2013-05-11 08:12:00,59.4,57.6,29.82,South,178,0.0,5.0,94,0.01,,,0.09,meteohub,2013-05-11 12:12:00,
2013-05-11 08:17:00,59.4,57.6,29.82,South,178,0.0,5.0,94,0.01,,,0.09,meteohub,2013-05-11 12:17:00,
2013-05-11 08:22:00,59.5,58.1,29.82,South,178,0.0,5.0,95,0.01,,,0.09,meteohub,2013-05-11 12:22:00,
2013-05-11 08:27:00,59.7,58.3,29.82,WSW,246,0.0,3.0,95,0.01,,,0.09,meteohub,2013-05-11 12:27:00,
2013-05-11 08:32:00,59.7,58.3,29.82,South,191,0.0,3.0,95,0.01,,,0.09,meteohub,2013-05-11 12:32:00,
2013-05-11 08:37:00,60.1,58.6,29.82,South,191,0.0,3.0,95,0.01,,,0.09,meteohub,2013-05-11 12:37:00,
2013-05-11 08:42:00,60.3,58.8,29.82,SW,216,0.0,3.0,95,0.01,,,0.09,meteohub,2013-05-11 12:42:00,
2013-05-11 08:47:00,60.6,59.2,29.81,WSW,257,0.0,3.0,95,0.00,,,0.09,meteohub,2013-05-11 12:47:00,
2013-05-11 08:52:00,61.0,59.5,29.81,SW,227,0.0,4.0,95,0.00,,,0.09,meteohub,2013-05-11 12:52:00,
2013-05-11 08:57:00,61.2,59.7,29.81,West,265,0.0,4.0,95,0.00,,,0.09,meteohub,2013-05-11 12:57:00,
2013-05-11 09:02:00,61.3,59.9,29.81,South,185,3.0,4.0,95,0.00,,,0.09,meteohub,2013-05-11 13:02:00,
2013-05-11 09:07:00,61.5,59.7,29.82,SSW,196,0.0,5.0,94,0.00,,,0.09,meteohub,2013-05-11 13:07:00,
2013-05-11 09:12:00,61.7,59.9,29.82,South,180,3.0,5.0,94,0.00,,,0.09,meteohub,2013-05-11 13:12:00,
2013-05-11 09:17:00,61.9,60.1,29.82,SSW,194,0.0,5.0,94,0.00,,,0.09,meteohub,2013-05-11 13:17:00,
2013-05-11 09:22:00,62.1,60.1,29.81,SSE,165,0.0,4.0,93,0.00,,,0.09,meteohub,2013-05-11 13:22:00,
2013-05-11 09:27:00,62.2,60.3,29.81,South,170,0.0,4.0,93,0.00,,,0.09,meteohub,2013-05-11 13:27:00,
2013-05-11 09:32:00,62.2,60.3,29.81,SSE,157,0.0,6.0,93,0.00,,,0.09,meteohub,2013-05-11 13:32:00,
2013-05-11 09:37:00,62.4,60.4,29.81,South,182,0.0,6.0,93,0.00,,,0.09,meteohub,2013-05-11 13:37:00,
2013-05-11 09:42:00,62.6,60.6,29.81,SSW,204,0.0,6.0,93,0.00,,,0.09,meteohub,2013-05-11 13:42:00,
2013-05-11 09:47:00,62.8,60.8,29.81,South,175,0.0,5.0,93,0.00,,,0.09,meteohub,2013-05-11 13:47:00,
2013-05-11 09:52:00,62.8,60.4,29.81,SSE,165,1.0,5.0,92,0.00,,,0.09,meteohub,2013-05-11 13:52:00,
2013-05-11 09:57:00,63.0,60.6,29.81,WSW,250,0.0,5.0,92,0.00,,,0.09,meteohub,2013-05-11 13:57:00,
2013-05-11 10:02:00,63.1,60.8,29.81,South,190,0.0,5.0,92,0.00,,,0.09,meteohub,2013-05-11 14:02:00,
2013-05-11 10:07:00,63.3,61.0,29.81,South,176,0.0,5.0,92,0.00,,,0.09,meteohub,2013-05-11 14:07:00,
2013-05-11 10:12:00,63.9,61.5,29.81,SW,220,0.0,4.0,92,0.00,,,0.09,meteohub,2013-05-11 14:12:00,
2013-05-11 10:17:00,64.2,61.5,29.81,WSW,248,0.0,4.0,91,0.00,,,0.09,meteohub,2013-05-11 14:17:00,
2013-05-11 10:22:00,64.6,61.5,29.81,WSW,241,2.0,6.0,90,0.00,,,0.09,meteohub,2013-05-11 14:22:00,
2013-05-11 10:27:00,64.8,61.7,29.80,SSW,207,0.0,7.0,90,0.00,,,0.09,meteohub,2013-05-11 14:27:00,
2013-05-11 10:32:00,64.9,61.3,29.80,SSW,197,3.0,7.0,88,0.00,,,0.09,meteohub,2013-05-11 14:32:00,
2013-05-11 10:37:00,64.9,61.7,29.81,WSW,248,3.0,9.0,89,0.00,,,0.09,meteohub,2013-05-11 14:37:00,
2013-05-11 10:42:00,64.9,61.7,29.81,SSW,196,0.0,9.0,89,0.00,,,0.09,meteohub,2013-05-11 14:42:00,
2013-05-11 10:47:00,64.9,61.7,29.81,SSE,150,0.0,9.0,89,0.00,,,0.09,meteohub,2013-05-11 14:47:00,
2013-05-11 10:52:00,64.8,61.5,29.81,WNW,284,0.0,5.0,89,0.00,,,0.09,meteohub,2013-05-11 14:52:00,
2013-05-11 10:57:00,64.8,62.1,29.81,NW,324,0.0,5.0,91,0.00,,,0.09,meteohub,2013-05-11 14:57:00,
2013-05-11 11:02:00,64.8,61.7,29.81,South,172,0.0,4.0,90,0.00,,,0.09,meteohub,2013-05-11 15:02:00,
2013-05-11 11:07:00,64.8,61.7,29.81,SW,217,0.0,4.0,90,0.00,,,0.09,meteohub,2013-05-11 15:07:00,
2013-05-11 11:13:00,64.8,61.7,29.81,West,261,0.0,4.0,90,0.00,,,0.09,meteohub,2013-05-11 15:13:00,
2013-05-11 11:18:00,64.6,61.5,29.81,SSW,192,0.0,4.0,90,0.00,,,0.09,meteohub,2013-05-11 15:18:00,
2013-05-11 11:23:00,64.6,61.5,29.81,SSE,161,3.0,3.0,90,0.00,,,0.09,meteohub,2013-05-11 15:23:00,
2013-05-11 11:28:00,64.6,61.5,29.81,South,182,0.0,3.0,90,0.00,,,0.09,meteohub,2013-05-11 15:28:00,
2013-05-11 11:33:00,64.8,62.1,29.80,SSW,196,1.0,3.0,91,0.00,,,0.09,meteohub,2013-05-11 15:33:00,
2013-05-11 11:38:00,64.9,61.9,29.80,SSW,207,0.0,3.0,90,0.00,,,0.09,meteohub,2013-05-11 15:38:00,
2013-05-11 11:43:00,65.1,62.1,29.80,SSE,167,3.0,6.0,90,0.00,,,0.09,meteohub,2013-05-11 15:43:00,
2013-05-11 11:48:00,65.1,61.9,29.80,SE,132,0.0,6.0,89,0.00,,,0.09,meteohub,2013-05-11 15:48:00,
2013-05-11 11:53:00,65.3,62.1,29.80,SW,214,0.0,7.0,89,0.00,,,0.09,meteohub,2013-05-11 15:53:00,
2013-05-11 11:58:00,65.3,62.1,29.80,ESE,111,0.0,7.0,89,0.00,,,0.09,meteohub,2013-05-11 15:58:00,
2013-05-11 12:03:00,65.3,62.1,29.80,West,275,1.0,7.0,89,0.00,,,0.09,meteohub,2013-05-11 16:03:00,
2013-05-11 12:08:00,65.3,61.7,29.80,SSE,156,0.0,5.0,88,0.00,,,0.09,meteohub,2013-05-11 16:08:00,
2013-05-11 12:13:00,65.5,61.9,29.80,SW,217,0.0,6.0,88,0.00,,,0.09,meteohub,2013-05-11 16:13:00,
2013-05-11 12:18:00,65.5,61.9,29.79,WSW,248,0.0,7.0,88,0.00,,,0.09,meteohub,2013-05-11 16:18:00,
2013-05-11 12:23:00,65.7,62.1,29.79,SSW,205,0.0,7.0,88,0.00,,,0.09,meteohub,2013-05-11 16:23:00,
2013-05-11 12:28:00,65.7,61.7,29.79,South,180,0.0,8.0,87,0.00,,,0.09,meteohub,2013-05-11 16:28:00,
2013-05-11 12:33:00,65.5,61.5,29.79,South,173,0.0,8.0,87,0.00,,,0.09,meteohub,2013-05-11 16:33:00,
2013-05-11 12:38:00,65.5,61.5,29.79,SSW,192,0.0,8.0,87,0.00,,,0.09,meteohub,2013-05-11 16:38:00,
2013-05-11 12:43:00,65.5,61.5,29.79,WSW,245,0.0,7.0,87,0.00,,,0.09,meteohub,2013-05-11 16:43:00,
2013-05-11 12:48:00,65.3,61.7,29.79,SSW,210,2.0,9.0,88,0.00,,,0.09,meteohub,2013-05-11 16:48:00,
2013-05-11 12:53:00,65.3,61.7,29.78,NW,309,0.0,9.0,88,0.00,,,0.09,meteohub,2013-05-11 16:53:00,
2013-05-11 12:58:00,65.1,61.5,29.79,SSE,159,4.0,6.0,88,0.00,,,0.09,meteohub,2013-05-11 16:58:00,
2013-05-11 13:03:00,65.1,61.5,29.78,SSW,207,0.0,7.0,88,0.00,,,0.09,meteohub,2013-05-11 17:03:00,
2013-05-11 13:08:00,64.9,61.7,29.78,South,187,0.0,7.0,89,0.00,,,0.09,meteohub,2013-05-11 17:08:00,
2013-05-11 13:13:00,64.8,61.2,29.78,South,184,0.0,7.0,88,0.00,,,0.09,meteohub,2013-05-11 17:13:00,
2013-05-11 13:18:00,64.6,61.3,29.78,WSW,255,2.0,7.0,89,0.00,,,0.09,meteohub,2013-05-11 17:18:00,
2013-05-11 13:23:00,64.2,61.0,29.78,SSW,205,1.0,7.0,89,0.00,,,0.09,meteohub,2013-05-11 17:23:00,
2013-05-11 13:28:00,64.0,60.8,29.78,SSW,204,5.0,6.0,89,0.01,,,0.10,meteohub,2013-05-11 17:28:00,
2013-05-11 13:33:00,63.9,60.8,29.78,SSW,205,0.0,7.0,90,0.01,,,0.10,meteohub,2013-05-11 17:33:00,
2013-05-11 13:38:00,63.9,60.8,29.78,West,267,0.0,7.0,90,0.01,,,0.10,meteohub,2013-05-11 17:38:00,
2013-05-11 13:43:00,63.7,60.6,29.78,SW,232,0.0,7.0,90,0.01,,,0.10,meteohub,2013-05-11 17:43:00,
2013-05-11 13:48:00,63.9,60.8,29.78,South,173,0.0,5.0,90,0.01,,,0.10,meteohub,2013-05-11 17:48:00,
2013-05-11 13:53:00,63.9,60.8,29.78,SSE,149,0.0,5.0,90,0.01,,,0.10,meteohub,2013-05-11 17:53:00,
2013-05-11 13:59:00,63.7,60.6,29.77,South,175,0.0,4.0,90,0.01,,,0.10,meteohub,2013-05-11 17:59:00,
2013-05-11 14:04:00,63.9,60.6,29.77,WSW,242,0.0,8.0,89,0.01,,,0.10,meteohub,2013-05-11 18:04:00,
2013-05-11 14:09:00,63.9,60.8,29.77,SW,220,0.0,8.0,90,0.01,,,0.10,meteohub,2013-05-11 18:09:00,
2013-05-11 14:14:00,63.9,60.6,29.77,SSE,168,1.0,6.0,89,0.01,,,0.10,meteohub,2013-05-11 18:14:00,
2013-05-11 14:19:00,63.9,60.6,29.77,SSW,205,1.0,6.0,89,0.01,,,0.10,meteohub,2013-05-11 18:19:00,
2013-05-11 14:24:00,63.9,60.6,29.78,South,170,2.0,4.0,89,0.01,,,0.10,meteohub,2013-05-11 18:24:00,
2013-05-11 14:29:00,63.7,60.4,29.77,South,175,0.0,4.0,89,0.00,,,0.10,meteohub,2013-05-11 18:29:00,
2013-05-11 14:34:00,63.7,60.4,29.77,SSW,202,0.0,3.0,89,0.00,,,0.10,meteohub,2013-05-11 18:34:00,
2013-05-11 14:39:00,63.7,60.4,29.76,West,278,1.0,7.0,89,0.00,,,0.10,meteohub,2013-05-11 18:39:00,
2013-05-11 14:44:00,63.7,60.4,29.76,SW,222,0.0,7.0,89,0.00,,,0.10,meteohub,2013-05-11 18:44:00,
2013-05-11 14:49:00,63.9,60.6,29.76,SW,217,0.0,7.0,89,0.00,,,0.10,meteohub,2013-05-11 18:49:00,
2013-05-11 14:54:00,63.9,60.3,29.76,South,176,5.0,6.0,88,0.00,,,0.10,meteohub,2013-05-11 18:54:00,
2013-05-11 14:59:00,63.9,60.3,29.76,SSE,157,0.0,6.0,88,0.00,,,0.10,meteohub,2013-05-11 18:59:00,
2013-05-11 15:04:00,64.0,60.8,29.76,South,180,0.0,7.0,89,0.00,,,0.10,meteohub,2013-05-11 19:04:00,
2013-05-11 15:09:00,64.0,60.4,29.75,SW,229,0.0,7.0,88,0.00,,,0.10,meteohub,2013-05-11 19:09:00,
2013-05-11 15:14:00,64.2,60.6,29.75,ENE,78,0.0,6.0,88,0.00,,,0.10,meteohub,2013-05-11 19:14:00,
2013-05-11 15:19:00,64.2,60.6,29.75,South,178,0.0,4.0,88,0.00,,,0.10,meteohub,2013-05-11 19:19:00,
2013-05-11 15:24:00,64.4,60.8,29.75,SSE,159,5.0,5.0,88,0.00,,,0.10,meteohub,2013-05-11 19:24:00,
2013-05-11 15:29:00,64.4,60.8,29.75,SW,222,1.0,4.0,88,0.00,,,0.10,meteohub,2013-05-11 19:29:00,
2013-05-11 15:34:00,64.2,60.6,29.75,WSW,242,0.0,7.0,88,0.00,,,0.10,meteohub,2013-05-11 19:34:00,
2013-05-11 15:39:00,64.2,60.6,29.75,South,175,2.0,7.0,88,0.00,,,0.10,meteohub,2013-05-11 19:39:00,
2013-05-11 15:44:00,64.2,61.0,29.75,SSW,202,1.0,5.0,89,0.00,,,0.10,meteohub,2013-05-11 19:44:00,
2013-05-11 15:49:00,64.0,61.0,29.75,South,173,0.0,5.0,90,0.00,,,0.10,meteohub,2013-05-11 19:49:00,
2013-05-11 15:54:00,64.0,61.0,29.75,SSW,203,1.0,5.0,90,0.00,,,0.10,meteohub,2013-05-11 19:54:00,
2013-05-11 15:59:00,63.9,60.8,29.74,South,188,0.0,5.0,90,0.00,,,0.10,meteohub,2013-05-11 19:59:00,
2013-05-11 16:04:00,63.9,60.8,29.74,South,188,0.0,4.0,90,0.00,,,0.10,meteohub,2013-05-11 20:04:00,
2013-05-11 16:09:00,63.9,61.2,29.73,South,188,0.0,4.0,91,0.00,,,0.10,meteohub,2013-05-11 20:09:00,
2013-05-11 16:14:00,63.9,61.2,29.73,South,188,0.0,1.0,91,0.00,,,0.10,meteohub,2013-05-11 20:14:00,
2013-05-11 16:19:00,63.9,61.2,29.73,WSW,244,2.0,2.0,91,0.00,,,0.10,meteohub,2013-05-11 20:19:00,
2013-05-11 16:24:00,63.7,61.0,29.74,WSW,245,0.0,1.0,91,0.00,,,0.10,meteohub,2013-05-11 20:24:00,
2013-05-11 16:29:00,63.7,61.3,29.75,WSW,245,0.0,2.0,92,0.00,,,0.10,meteohub,2013-05-11 20:29:00,
2013-05-11 16:34:00,63.7,61.3,29.75,WSW,245,0.0,2.0,92,0.00,,,0.10,meteohub,2013-05-11 20:34:00,
2013-05-11 16:39:00,63.7,61.3,29.75,South,175,1.0,1.0,92,0.00,,,0.10,meteohub,2013-05-11 20:39:00,
2013-05-11 16:44:00,63.7,61.3,29.76,South,175,0.0,3.0,92,0.00,,,0.10,meteohub,2013-05-11 20:44:00,
2013-05-11 16:50:00,63.7,61.3,29.76,South,169,0.0,3.0,92,0.00,,,0.10,meteohub,2013-05-11 20:50:00,
2013-05-11 16:55:00,63.5,61.2,29.76,South,169,0.0,3.0,92,0.01,,,0.10,meteohub,2013-05-11 20:55:00,
2013-05-11 17:00:00,63.5,61.2,29.75,South,169,0.0,2.0,92,0.01,,,0.12,meteohub,2013-05-11 21:00:00,
2013-05-11 17:05:00,63.3,61.0,29.75,South,169,0.0,2.0,92,0.02,,,0.12,meteohub,2013-05-11 21:05:00,
2013-05-11 17:10:00,63.3,61.3,29.76,South,169,0.0,0.0,93,0.03,,,0.16,meteohub,2013-05-11 21:10:00,
2013-05-11 17:15:00,63.1,61.2,29.76,South,169,0.0,1.0,93,0.06,,,0.18,meteohub,2013-05-11 21:15:00,
2013-05-11 17:20:00,63.1,61.2,29.75,South,169,0.0,1.0,93,0.10,,,0.20,meteohub,2013-05-11 21:20:00,
2013-05-11 17:25:00,63.0,61.0,29.75,South,169,0.0,1.0,93,0.13,,,0.23,meteohub,2013-05-11 21:25:00,
2013-05-11 17:30:00,63.0,61.0,29.75,South,169,0.0,1.0,93,0.14,,,0.24,meteohub,2013-05-11 21:30:00,
2013-05-11 17:35:00,63.0,61.0,29.75,South,169,0.0,1.0,93,0.14,,,0.24,meteohub,2013-05-11 21:35:00,
2013-05-11 17:40:00,63.0,61.0,29.75,SSW,213,0.0,1.0,93,0.14,,,0.24,meteohub,2013-05-11 21:40:00,
2013-05-11 17:45:00,62.8,61.0,29.74,South,171,0.0,2.0,94,0.14,,,0.24,meteohub,2013-05-11 21:45:00,
2013-05-11 17:50:00,62.8,61.0,29.75,SSW,202,2.0,3.0,94,0.13,,,0.24,meteohub,2013-05-11 21:50:00,
2013-05-11 17:55:00,62.8,61.0,29.75,WNW,291,1.0,4.0,94,0.13,,,0.24,meteohub,2013-05-11 21:55:00,
2013-05-11 18:00:00,62.8,61.0,29.75,West,275,2.0,5.0,94,0.12,,,0.24,meteohub,2013-05-11 22:00:00,
2013-05-11 18:05:00,62.8,61.0,29.75,WNW,282,0.0,5.0,94,0.10,,,0.24,meteohub,2013-05-11 22:05:00,
2013-05-11 18:10:00,62.6,60.8,29.75,South,188,1.0,5.0,94,0.07,,,0.24,meteohub,2013-05-11 22:10:00,
2013-05-11 18:15:00,62.4,60.4,29.75,South,187,0.0,6.0,93,0.05,,,0.24,meteohub,2013-05-11 22:15:00,
2013-05-11 18:20:00,62.4,60.6,29.75,SSW,211,0.0,6.0,94,0.03,,,0.24,meteohub,2013-05-11 22:20:00,
2013-05-11 18:25:00,62.2,60.3,29.75,West,277,2.0,5.0,93,0.04,,,0.27,meteohub,2013-05-11 22:25:00,
2013-05-11 18:30:00,62.1,60.3,29.75,South,169,2.0,5.0,94,0.05,,,0.29,meteohub,2013-05-11 22:30:00,
2013-05-11 18:35:00,62.1,60.3,29.75,SSW,194,2.0,5.0,94,0.09,,,0.33,meteohub,2013-05-11 22:35:00,
2013-05-11 18:40:00,62.1,60.3,29.76,South,190,0.0,5.0,94,0.09,,,0.33,meteohub,2013-05-11 22:40:00,
2013-05-11 18:45:00,61.9,60.1,29.76,SSE,168,0.0,4.0,94,0.09,,,0.33,meteohub,2013-05-11 22:45:00,
2013-05-11 18:50:00,61.9,60.1,29.75,South,176,0.0,4.0,94,0.09,,,0.33,meteohub,2013-05-11 22:50:00,
2013-05-11 18:55:00,61.9,60.1,29.75,South,176,0.0,3.0,94,0.09,,,0.33,meteohub,2013-05-11 22:55:00,
2013-05-11 19:00:00,61.9,60.1,29.74,South,176,0.0,2.0,94,0.09,,,0.33,meteohub,2013-05-11 23:00:00,
2013-05-11 19:05:00,62.1,60.3,29.74,South,176,0.0,1.0,94,0.09,,,0.33,meteohub,2013-05-11 23:05:00,
2013-05-11 19:10:00,62.1,60.3,29.74,South,176,0.0,1.0,94,0.09,,,0.33,meteohub,2013-05-11 23:10:00,
2013-05-11 19:15:00,62.1,60.3,29.74,South,176,0.0,1.0,94,0.09,,,0.33,meteohub,2013-05-11 23:15:00,
2013-05-11 19:20:00,62.1,60.3,29.74,South,176,0.0,0.0,94,0.09,,,0.33,meteohub,2013-05-11 23:20:00,
2013-05-11 19:25:00,62.1,60.3,29.74,South,176,0.0,0.0,94,0.06,,,0.33,meteohub,2013-05-11 23:25:00,
2013-05-11 19:30:00,62.1,60.3,29.73,South,176,0.0,2.0,94,0.01,,,0.33,meteohub,2013-05-11 23:30:00,
2013-05-11 19:35:00,62.1,60.3,29.73,South,176,0.0,2.0,94,0.00,,,0.33,meteohub,2013-05-11 23:35:00,
2013-05-11 19:40:00,62.1,60.3,29.73,South,176,0.0,2.0,94,0.00,,,0.33,meteohub,2013-05-11 23:40:00,
2013-05-11 19:45:00,62.1,60.3,29.73,South,176,0.0,0.0,94,0.00,,,0.33,meteohub,2013-05-11 23:45:00,
2013-05-11 19:50:00,62.1,60.3,29.73,South,182,1.0,0.0,94,0.00,,,0.33,meteohub,2013-05-11 23:50:00,
2013-05-11 19:55:00,61.9,60.1,29.74,SW,232,0.0,4.0,94,0.00,,,0.33,meteohub,2013-05-11 23:55:00,
2013-05-11 20:00:00,61.9,60.1,29.74,SW,231,0.0,4.0,94,0.00,,,0.33,meteohub,2013-05-12 00:00:00,
2013-05-11 20:05:00,61.9,60.1,29.74,SW,233,0.0,4.0,94,0.00,,,0.33,meteohub,2013-05-12 00:05:00,
2013-05-11 20:10:00,61.7,59.9,29.74,SSW,194,0.0,1.0,94,0.00,,,0.33,meteohub,2013-05-12 00:10:00,
2013-05-11 20:15:00,61.5,59.7,29.74,SSW,194,0.0,1.0,94,0.00,,,0.33,meteohub,2013-05-12 00:15:00,
2013-05-11 20:20:00,61.5,59.7,29.74,SSW,195,0.0,1.0,94,0.00,,,0.33,meteohub,2013-05-12 00:20:00,
2013-05-11 20:25:00,61.5,59.7,29.74,SSW,194,0.0,1.0,94,0.00,,,0.33,meteohub,2013-05-12 00:25:00,
2013-05-11 20:31:00,61.5,59.7,29.74,SSW,194,0.0,1.0,94,0.00,,,0.33,meteohub,2013-05-12 00:31:00,
2013-05-11 20:36:00,61.5,60.1,29.73,SSW,195,0.0,1.0,95,0.00,,,0.33,meteohub,2013-05-12 00:36:00,
2013-05-11 20:41:00,61.5,60.1,29.73,SSW,194,0.0,1.0,95,0.00,,,0.33,meteohub,2013-05-12 00:41:00,
2013-05-11 20:46:00,61.5,60.1,29.73,SSW,194,0.0,0.0,95,0.00,,,0.33,meteohub,2013-05-12 00:46:00,
2013-05-11 20:51:00,61.5,60.1,29.73,SSW,194,0.0,0.0,95,0.00,,,0.33,meteohub,2013-05-12 00:51:00,
2013-05-11 20:56:00,61.3,59.9,29.73,SSW,195,0.0,0.0,95,0.00,,,0.33,meteohub,2013-05-12 00:56:00,
2013-05-11 21:01:00,61.3,59.9,29.73,SSW,194,0.0,0.0,95,0.00,,,0.33,meteohub,2013-05-12 01:01:00,
2013-05-11 21:06:00,61.3,59.9,29.73,SSW,194,0.0,0.0,95,0.00,,,0.33,meteohub,2013-05-12 01:06:00,
2013-05-11 21:11:00,61.3,59.9,29.73,SSW,194,0.0,0.0,95,0.00,,,0.33,meteohub,2013-05-12 01:11:00,
2013-05-11 21:16:00,61.3,59.9,29.73,SSW,194,0.0,0.0,95,0.00,,,0.33,meteohub,2013-05-12 01:16:00,
2013-05-11 21:21:00,61.3,59.9,29.73,SSW,194,0.0,0.0,95,0.00,,,0.33,meteohub,2013-05-12 01:21:00,
2013-05-11 21:26:00,61.3,59.9,29.73,SSW,194,0.0,0.0,95,0.00,,,0.33,meteohub,2013-05-12 01:26:00,
2013-05-11 21:31:00,61.3,59.9,29.73,SSW,194,0.0,0.0,95,0.00,,,0.33,meteohub,2013-05-12 01:31:00,
2013-05-11 21:36:00,61.3,59.9,29.73,SSW,194,0.0,0.0,95,0.00,,,0.33,meteohub,2013-05-12 01:36:00,
2013-05-11 21:41:00,61.3,59.9,29.73,SSW,194,0.0,0.0,95,0.00,,,0.33,meteohub,2013-05-12 01:41:00,
2013-05-11 21:46:00,61.3,59.9,29.73,SSW,194,0.0,0.0,95,0.00,,,0.33,meteohub,2013-05-12 01:46:00,
2013-05-11 21:51:00,61.3,59.9,29.73,SSW,195,0.0,0.0,95,0.00,,,0.33,meteohub,2013-05-12 01:51:00,
2013-05-11 21:56:00,61.3,59.9,29.73,SSW,194,0.0,0.0,95,0.00,,,0.33,meteohub,2013-05-12 01:56:00,
2013-05-11 22:01:00,61.3,59.9,29.73,SSW,195,0.0,0.0,95,0.00,,,0.33,meteohub,2013-05-12 02:01:00,
2013-05-11 22:06:00,61.3,59.9,29.73,SSW,194,0.0,0.0,95,0.00,,,0.33,meteohub,2013-05-12 02:06:00,
2013-05-11 22:11:00,61.2,59.7,29.73,SSW,195,0.0,0.0,95,0.00,,,0.33,meteohub,2013-05-12 02:11:00,
2013-05-11 22:16:00,61.2,59.7,29.73,SSW,195,0.0,0.0,95,0.00,,,0.33,meteohub,2013-05-12 02:16:00,
2013-05-11 22:21:00,61.2,59.7,29.73,SSW,194,0.0,0.0,95,0.00,,,0.33,meteohub,2013-05-12 02:21:00,
2013-05-11 22:26:00,61.0,59.5,29.73,South,177,0.0,1.0,95,0.00,,,0.33,meteohub,2013-05-12 02:26:00,
2013-05-11 22:32:00,61.0,59.5,29.73,SW,228,0.0,3.0,95,0.00,,,0.33,meteohub,2013-05-12 02:32:00,
2013-05-11 22:37:00,60.8,59.4,29.73,South,171,0.0,3.0,95,0.00,,,0.33,meteohub,2013-05-12 02:37:00,
2013-05-11 22:42:00,60.8,59.4,29.73,South,171,0.0,3.0,95,0.00,,,0.33,meteohub,2013-05-12 02:42:00,
2013-05-11 22:47:00,60.6,59.2,29.73,South,171,0.0,3.0,95,0.00,,,0.33,meteohub,2013-05-12 02:47:00,
2013-05-11 22:52:00,60.6,59.2,29.73,South,171,0.0,1.0,95,0.00,,,0.33,meteohub,2013-05-12 02:52:00,
2013-05-11 22:57:00,60.6,59.2,29.73,South,171,0.0,1.0,95,0.00,,,0.33,meteohub,2013-05-12 02:57:00,
2013-05-11 23:02:00,60.4,59.0,29.72,South,171,0.0,0.0,95,0.00,,,0.33,meteohub,2013-05-12 03:02:00,
2013-05-11 23:07:00,60.4,59.0,29.72,South,171,0.0,0.0,95,0.00,,,0.33,meteohub,2013-05-12 03:07:00,
2013-05-11 23:12:00,60.4,59.0,29.72,South,171,0.0,0.0,95,0.00,,,0.33,meteohub,2013-05-12 03:12:00,
2013-05-11 23:17:00,60.4,59.0,29.71,South,171,0.0,0.0,95,0.00,,,0.33,meteohub,2013-05-12 03:17:00,
2013-05-11 23:22:00,60.4,59.0,29.71,South,171,0.0,0.0,95,0.00,,,0.33,meteohub,2013-05-12 03:22:00,
2013-05-11 23:27:00,60.4,59.0,29.71,South,171,0.0,0.0,95,0.00,,,0.33,meteohub,2013-05-12 03:27:00,
2013-05-11 23:32:00,60.3,58.8,29.71,South,171,0.0,0.0,95,0.00,,,0.33,meteohub,2013-05-12 03:32:00,
2013-05-11 23:37:00,60.3,58.8,29.71,South,171,0.0,0.0,95,0.00,,,0.33,meteohub,2013-05-12 03:37:00,
2013-05-11 23:42:00,60.3,58.8,29.70,South,171,0.0,0.0,95,0.00,,,0.33,meteohub,2013-05-12 03:42:00,
2013-05-11 23:47:00,60.3,58.8,29.70,South,171,0.0,0.0,95,0.00,,,0.33,meteohub,2013-05-12 03:47:00,
2013-05-11 23:52:00,60.3,58.8,29.70,South,171,0.0,0.0,95,0.00,,,0.33,meteohub,2013-05-12 03:52:00,
2013-05-11 23:58:00,60.3,58.8,29.71,South,171,0.0,0.0,95,0.00,,,0.33,meteohub,2013-05-12 03:58:00,